Regional Weather Roundup
Issued by NWS

Home | Current Version | Previous Version | Graphics & Text | Print | Product List | Glossary On
Versions: 1 2 3 4 5 6 7 8 9 10 11 12 13 14 15 16 17 18 19 20 21 22 23 24 25 26 27 28 29 30 31 32 33 34 35 36 37 38 39 40 41 42 43 44 45 46 47 48 49 50
969
ASUS43 KMPX 251210
RWRMN
WEATHER ROUNDUP FOR MINNESOTA
NATIONAL WEATHER SERVICE TWIN CITIES/CHANHASSEN MN
600 AM CST SUN FEB 25 2018


NOTE: "FAIR" INDICATES FEW OR NO CLOUDS BELOW 12,000 FEET WITH NO
SIGNIFICANT WEATHER AND/OR OBSTRUCTIONS TO VISIBILITY. N/A MEANS
CURRENT SKY AND/OR WEATHER CONDITIONS ARE NOT AVAILABLE.

MNZ060>063-068>070-251300-
   Twin Cities Metro

CITY           SKY/WX    TMP DP  RH WIND       PRES   REMARKS
TWIN CITIES    CLOUDY    18  15  88 W13       29.61R WCI   5
6HR MIN TEMP:  16; 6HR MAX TEMP:  23; 6HR PCP: TRACE;

ST PAUL        CLOUDY    19  14  81 W10       29.62R WCI   7
CRYSTAL        CLOUDY    18  13  80 W12       29.58R WCI   5
BLAINE         CLOUDY    19  18  93 W12G18    29.57R WCI   7
LAKEVILLE      CLOUDY    16  14  93 W12G20    29.62R WCI   3
EDEN PRAIRIE   CLOUDY    18  13  80 SW14      29.61R WCI   4
6HR MIN TEMP:  16; 6HR MAX TEMP:  22; 6HR PCP: TRACE;

SOUTH ST PAUL  CLOUDY    19  15  85 W12G17    29.60S WCI   7
LAKE ELMO      CLOUDY    18  16  93 SW13      29.60R WCI   4
$$
MNZ001>005-007-008-013>017-022>024-027-028-251300-
   Northwest Minnesota

CITY           SKY/WX    TMP DP  RH WIND       PRES   REMARKS
BEMIDJI        CLOUDY    18  17  93 W14       29.42R WCI   4
HALLOCK        FLURRIES  14  12  92 SW3       29.47R
ROSEAU         FLURRIES  19  16  86 W8        29.42F WCI   9
WARROAD        LGT SNOW  19  16  86 W7        29.41F WCI  10
THIEF RVR FALL FLURRIES  16  14  92 W6        29.45F WCI   7
CROOKSTON      CLOUDY    18  16  93 W10       29.50R WCI   6
FOSSTON        FLURRIES  16  14  93 W9        29.46R WCI   4
DETROIT LAKES  CLOUDY    16  14  93 W7        29.51R WCI   6
MOORHEAD       CLOUDY    10   9  92 W10       29.55R WCI  -3
PARK RAPIDS    CLOUDY    18  15  88 W12       29.45R WCI   5
MAHNOMEN       CLOUDY    15  13  92 W12       29.48R WCI   2
$$
MNZ006-009>011-018-025>026-251300-
   North Central Minnesota

CITY           SKY/WX    TMP DP  RH WIND       PRES   REMARKS
BAUDETTE       LGT SNOW  20  17  88 NW14      29.36S FOG     WCI   7
FLAG ISLAND    LGT SNOW  19  18  93 NW13      29.39R WCI   7
INTL FALLS     LGT SNOW  22  20  92 NW7       29.31S FOG     WCI  13
6HR MIN TEMP:  21; 6HR MAX TEMP:  23; 6HR PCP:  0.11;

WASKISH        FLURRIES  19  18  93 W9        29.38S WCI   9
LONGVILLE      CLOUDY    19  18  93 W10G17    29.43R WCI   8
GRAND RAPIDS   CLOUDY    20  17  88 W13G18    29.39R WCI   7
CRANE LAKE     CLOUDY    19  18  93 CALM      29.30R
ORR            LGT SNOW  19  16  86 W5        29.27S WCI  13
COOK           FLURRIES  19  18  93 W7        29.30R WCI  10
WALKER         CLOUDY    19  16  88 W13G22    29.42R WCI   6
$$
MNZ012-019>021-037-251300-
   Northeast Minnesota

CITY           SKY/WX    TMP DP  RH WIND       PRES   REMARKS
DULUTH         CLOUDY    23  18  81 W24G32    29.31R BLWGSNOWWCI   7
6HR MIN TEMP:  23; 6HR MAX TEMP:  28; 6HR PCP:  0.10;

ELY            CLOUDY    21  19  93 W7        29.25R WCI  13
HIBBING        CLOUDY    19  17  92 W12G18    29.31R WCI   7
EVELETH        MOCLDY    21  19  93 W10       29.30S WCI  10
DULUTH HARBOR  CLOUDY    27  21  80 W23G30    29.36S WCI  12
TWO HARBORS    CLOUDY    28  21  74 W17G28    29.26S WCI  16
SILVER BAY     MIX PCPN  28  27  93 W7        29.24R WCI  21
GRAND MARAIS     N/A     30  27  88 SW10      29.22F WCI  21
G MARAIS ARPRT LGT SNOW  23  19  86 CALM      29.16F
$$
MNZ029>031-032-039>041-046>048-054>057-064-251300-
   West Central Minnesota

CITY           SKY/WX    TMP DP  RH WIND       PRES   REMARKS
FERGUS FALLS   MOCLDY     1  -2  85 CALM      29.57R
WHEATON        CLEAR      9   3  78 W13       29.61R WCI  -7
MORRIS         CLOUDY     7   3  85 W12       29.58R WCI  -9
ALEXANDRIA     CLOUDY    12   9  87 W14       29.54R WCI  -3
ELBOW LAKE     FAIR       5   2  88 SW12      29.57R WCI -11
WADENA         FLURRIES  14  12  92 W10       29.49R WCI   1
GLENWOOD       FAIR      10   7  85 W12       29.56R WCI  -4
APPLETON       CLEAR      3   0  85 W9        29.62R WCI -11
BENSON         CLEAR      7   3  85 W9        29.61R WCI  -7
MADISON        CLEAR     12   7  79 W10       29.64S WCI  -1
WILLMAR        FAIR       9   5  85 W13       29.62R WCI  -7
$$
MNZ033>034-036-042>043-049>051-058-059-251300-
   Central Minnesota

CITY           SKY/WX    TMP DP  RH WIND       PRES   REMARKS
ST CLOUD       CLOUDY    18  16  92 W10       29.54R WCI   6
6HR MIN TEMP:  18; 6HR MAX TEMP:  24; 6HR PCP: TRACE;

SAUK CENTRE    CLOUDY    15  12  88 W14       29.54R WCI   0
PAYNESVILLE    FAIR      13  11  92 SW13      29.59R WCI  -2
AITKIN         CLOUDY    19  16  86 W7        29.43R WCI  10
PINE RIVER     CLOUDY    19  16  86 W9        29.49R WCI   9
BRAINERD       CLOUDY    21  16  81 W14       29.47R WCI   8
STAPLES        CLOUDY    16  16 100 W6        29.49R WCI   7
LONG PRAIRIE   CLOUDY    18  14  86 SW13G18   29.52S WCI   4
LITTLE FALLS   CLOUDY    19  12  73 W7        29.53R WCI  10
LITCHFIELD     FAIR      12  10  92 W8        29.61R WCI   1
BUFFALO        CLOUDY    17  14  85 SW8       29.60R WCI   7
MAPLE LAKE     CLOUDY    17  15  90 SW6       29.58S WCI   9
HUTCHINSON     FAIR      13  10  86 SW12      29.62R WCI  -1
$$
MNZ037-044-045-052-053-251300-
   East Central Minnesota

CITY           SKY/WX    TMP DP  RH WIND       PRES   REMARKS
PRINCETON      CLOUDY    21  18  86 SW9       29.54R WCI  11
CAMBRIDGE        N/A     23  18  80 W8        29.54R WCI  14
RUSH CITY      CLOUDY    21  17  85 W9        29.53R WCI  11
MOOSE LAKE     MOCLDY    21  18  86 W10G22    29.42R WCI  10
HINCKLEY       CLOUDY    23  19  86 W15G22    29.48R WCI  10
CLOQUET        CLOUDY    21  18  86 W16G24    29.36R WCI   7
MCGREGOR       CLOUDY    21  19  93 W10       29.43R WCI  10
$$
MNZ071>073-080-081-089-090-097-098-251300-
   Southwest Minnesota

CITY           SKY/WX    TMP DP  RH WIND       PRES   REMARKS
MONTEVIDEO     CLEAR     10   7  85 W8        29.62S WCI  -1
GRANITE FALLS  CLEAR     11   6  79 SW12      29.66R WCI  -3
CANBY          CLEAR     15   9  76 NW5       29.66R WCI   7
MARSHALL       CLEAR     12   7  80 W13       29.66R WCI  -3
REDWOOD FALLS  CLEAR     13   7  77 W15       29.65R WCI  -3
OLIVIA         CLEAR     16  10  79 W13       29.62R WCI   2
PIPESTONE      CLEAR      9   3  78 W15       29.66R WCI  -8
WORTHINGTON    CLEAR     11   6  81 SW15      29.70R WCI  -5
JACKSON        CLEAR     14   9  79 W23G31    29.67R HAZE    WCI  -5
TRACY          CLEAR     15  10  78 W10       29.65R WCI   3
SLAYTON        CLEAR     12   7  81 W17G24    29.66R WCI  -5
$$
MNZ065>067-074>077-082>085-091>093-251300-
   South Central Minnesota

CITY           SKY/WX    TMP DP  RH WIND       PRES   REMARKS
MANKATO        FAIR      15  11  83 W15       29.65S WCI   0
NEW ULM        CLEAR     12   9  85 W17       29.66R WCI  -5
ST JAMES       CLEAR     12   9  85 SW16      29.68R WCI  -4
FAIRMONT       CLEAR     12   7  80 W21       29.70R WCI  -7
GLENCOE        FAIR      13  12  98 SW7       29.63R WCI   2
FARIBAULT      FAIR      16  12  86 SW7       29.65R WCI   6
OWATONNA       FAIR      12  10  92 SW16      29.65R WCI  -4
WASECA         FAIR      12  10  92 SW10      29.67S WCI  -1
ALBERT LEA       N/A     16  12  86 SW7       29.68R WCI   6
$$
MNZ078>079-086>088-094>096-251300-
   Southeast Minnesota

CITY           SKY/WX    TMP DP  RH WIND       PRES   REMARKS
ROCHESTER      CLOUDY    17  15  92 W18G30    29.65R WCI   1
6HR MIN TEMP:  17; 6HR MAX TEMP:  21; 6HR PCP: TRACE;

RED WING       CLOUDY    19  14  79 W14       29.62R WCI   6
STANTON        CLOUDY    20  15  82 SW13G20   29.63R WCI   7
DODGE CENTER   MOCLDY    14  12  92 W13       29.64R WCI   0
WINONA         CLOUDY    21  18  86 W7        29.66R WCI  13
AUSTIN         FAIR      16  12  86 SW9       29.68R WCI   4
PRESTON        CLOUDY    17  14  88 W13       29.67R WCI   3
$$
ABBREVIATIONS USED IN REMARKS
   TC - TEMPERATURES IN CELSIUS
  WCI - WIND CHILL INDEX
   HX - HEAT INDEX
  VSB - VISIBILITY
$$




USA.gov is the U.S. government's official web portal to all federal, state and local government web resources and services.